San Francisco, CA

8:26 PM PST on December 03, 2016 (GMT -0800)
San Francisco International

Weather History for KSFO - November, 2014

Change the Weather History Date:

Sunday, November 30, 2014

  Actual Average Record
Temperature  
Mean Temperature 58 °F 53 °F  
Max Temperature 62 °F 59 °F 71 °F (1959)
Min Temperature 53 °F 46 °F 31 °F (1954)
Degree Days  
Heating Degree Days 7 12  
Month to date heating degree days 153 277  
Since 1 July heating degree days 188 564  
Cooling Degree Days 0 0  
Month to date cooling degree days 0 1  
Year to date cooling degree days 497 164  
Growing Degree Days 7 (Base 50)    
Moisture  
Dew Point 56 °F    
Average Humidity 92    
Maximum Humidity 100    
Minimum Humidity 83    
Precipitation  
Precipitation 1.04 in 0.10 in 2.39 in (1973)
Month to date precipitation 1.99 2.38  
Year to date precipitation 10.03 16.62  
Since 1 July precipitation 2.72  
Sea Level Pressure  
Sea Level Pressure 29.87 in    
Wind  
Wind Speed 6 mph (ENE)    
Max Wind Speed 23 mph    
Max Gust Speed 29 mph    
Visibility 9 miles    
Events Rain    
T = Trace of Precipitation, MM = Missing Value Source: NWS Daily Summary

Daily Weather History Graph

Daily Weather History Graph

Search for Another Location

Airport or City:

Trip Planner

Search our weather history database for the weather conditions in past years. The results will help you decide how hot, cold, wet, or windy it might be!

Date:

Astronomy

Nov. 30, 2014 Rise Set
Actual Time 7:04 AM PST 4:51 PM PST
Civil Twilight 6:36 AM PST 5:20 PM PST
Nautical Twilight 6:03 AM PST 5:52 PM PST
Astronomical Twilight 5:32 AM PST 6:24 PM PST
Moon 1:18 PM PST (11/30) 12:48 AM PST (11/30)
Length of Visible Light 10h 44m
Length of Day
9h 46m
Waxing Gibbous, 66% of the Moon is Illuminated
Nov 30
Waxing Gibbous
Dec 6
Full
Dec 14
Last Quarter
Dec 21
New
Dec 28
First Quarter

Hourly Weather History & Observations

Time (PST) Temp. Dew Point Humidity Pressure Visibility Wind Dir Wind Speed Gust Speed Precip Events Conditions
12:56 AM 59.0 °F 57.0 °F 93% 29.76 in 10.0 mi NW 3.5 mph - 0.00 in   Overcast
1:56 AM 59.0 °F 57.0 °F 93% 29.77 in 10.0 mi Calm Calm - N/A   Overcast
2:56 AM 57.9 °F 55.9 °F 93% 29.76 in 10.0 mi NNE 5.8 mph - N/A   Partly Cloudy
3:21 AM 57.2 °F 55.4 °F 94% 29.75 in 10.0 mi NE 5.8 mph - N/A   Scattered Clouds
3:56 AM 57.9 °F 55.9 °F 93% 29.74 in 10.0 mi East 3.5 mph - N/A   Mostly Cloudy
4:56 AM 57.0 °F 54.0 °F 89% 29.76 in 10.0 mi Calm Calm - 0.01 in Rain Light Rain
5:56 AM 55.9 °F 51.1 °F 84% 29.77 in 10.0 mi SSE 5.8 mph - 0.00 in   Overcast
6:56 AM 55.9 °F 50.0 °F 80% 29.78 in 10.0 mi SE 8.1 mph - N/A   Mostly Cloudy
7:56 AM 55.9 °F 52.0 °F 87% 29.82 in 7.0 mi South 4.6 mph - 0.03 in Rain Rain
8:56 AM 55.0 °F 52.0 °F 89% 29.82 in 6.0 mi SE 16.1 mph - 0.15 in Rain Light Rain
9:56 AM 54.0 °F 51.1 °F 90% 29.81 in 7.0 mi ESE 21.9 mph 28.8 mph 0.05 in Rain Light Rain
10:27 AM 53.6 °F 51.8 °F 94% 29.84 in 10.0 mi ESE 11.5 mph - 0.03 in Rain Light Rain
10:56 AM 55.0 °F 53.1 °F 93% 29.84 in 10.0 mi ESE 6.9 mph - 0.04 in Rain Light Rain
11:56 AM 57.9 °F 53.1 °F 84% 29.83 in 10.0 mi SE 11.5 mph - 0.01 in   Mostly Cloudy
12:56 PM 57.9 °F 55.0 °F 90% 29.83 in 10.0 mi East 6.9 mph - N/A   Mostly Cloudy
1:56 PM 59.0 °F 55.0 °F 87% 29.85 in 10.0 mi East 8.1 mph - N/A   Mostly Cloudy
2:39 PM 59.0 °F 55.4 °F 88% 29.85 in 10.0 mi East 6.9 mph - 0.00 in   Mostly Cloudy
2:56 PM 59.0 °F 57.0 °F 93% 29.86 in 10.0 mi ESE 4.6 mph - 0.00 in Rain Light Rain
3:56 PM 60.1 °F 55.0 °F 83% 29.88 in 10.0 mi Calm Calm - 0.00 in   Overcast
4:56 PM 59.0 °F 57.0 °F 93% 29.90 in 10.0 mi NNE 5.8 mph - 0.00 in Rain Light Rain
5:24 PM 60.8 °F 57.2 °F 88% 29.92 in 10.0 mi ENE 4.6 mph - 0.00 in Rain Light Rain
5:56 PM 60.1 °F 57.9 °F 93% 29.93 in 10.0 mi North 4.6 mph - 0.01 in   Overcast
6:07 PM 60.8 °F 59.0 °F 94% 29.94 in 9.0 mi North 5.8 mph - 0.00 in Rain Light Rain
6:56 PM 60.1 °F 59.0 °F 96% 29.96 in 5.0 mi North 3.5 mph - 0.02 in Rain Light Rain
7:40 PM 59.0 °F 59.0 °F 100% 29.97 in 6.0 mi NW 3.5 mph - 0.10 in Rain Light Rain
7:56 PM 59.0 °F 59.0 °F 100% 29.97 in 3.0 mi NW 6.9 mph - 0.32 in Rain Rain
8:21 PM 59.0 °F 59.0 °F 100% 29.98 in 6.0 mi North 3.5 mph - 0.14 in Rain Light Rain
8:56 PM 59.0 °F 59.0 °F 100% 29.99 in 6.0 mi NNE 5.8 mph - 0.26 in Rain Light Rain
9:28 PM 59.0 °F 59.0 °F 100% 30.00 in 4.0 mi NNW 6.9 mph - 0.13 in Rain Rain
9:56 PM 60.1 °F 60.1 °F 100% 30.01 in 10.0 mi NNE 3.5 mph - 0.14 in   Overcast
10:56 PM 60.1 °F 60.1 °F 100% 30.02 in 10.0 mi Calm Calm - N/A   Overcast
11:56 PM 60.1 °F 59.0 °F 96% 30.02 in 10.0 mi ENE 3.5 mph - N/A   Mostly Cloudy